RH
74 80 87 81 78 81 78 85 82 70 70 83 84 88 90 87 87 84 83 74 74 74 72 78 86 90 95 95 97 90 82 72 69 66 60 61 71 87 86 82 81 77 84
63 82 87 84 85 76 80 93 70 68 67 74 79 82 86 75 75 78 77 74 71 74 74 77 80 84 85 94 94 92 92 71 72 70 67 61 56 76 86 81 77 74 93
63 83 84 79 72 81 95 96 71 69 68 73 72 72 76 70 73 78 76 71 78 71 76 80 73 71 84 85 89 88 85 76 75 69 68 64 67 67 86 84 70 64 79
59 79 82 74 72 84 90 75 71 71 72 73 75 67 71 68 64 64 68 69 69 70 74 69 78 66 70 72 79 75 68 81 77 74 64 67 65 74 81 85 89 83 80
56 68 71 74 76 84 82 74 67 71 74 73 68 69 71 76 71 79 68 62 66 72 74 67 70 79 83 66 65 65 81 85 74 72 69 73 68 68 84 84 84 85 83
60 68 72 78 78 80 79 67 68 72 77 76 65 69 77 72 72 81 77 60 64 72 69 70 78 86 88 91 92 90 87 83 84 69 67 62 72 71 70 81 88 87 86
68 68 75 73 70 83 72 70 73 85 83 72 76 72 75 73 68 76 71 66 69 72 70 73 87 88 86 90 94 96 95 92 87 80 72 64 60 67 81 76 75 82 85
68 79 75 70 71 76 72 74 73 75 77 78 76 82 86 69 64 74 86 85 79 83 80 91 92 95 93 89 90 92 90 88 88 82 75 72 65 65 80 77 81 79 80
68 81 80 80 76 72 70 73 70 75 78 78 77 74 70 67 64 69 86 89 86 78 78 79 75 70 73 74 70 65 66 66 67 69 72 74 74 69 85 82 80 79 80
70 73 76 81 80 72 71 70 73 78 77 81 82 80 72 57 61 68 70 74 73 75 68 58 65 70 75 75 73 70 69 69 70 70 71 70 70 70 90 87 82 79 78
76 68 67 69 81 65 70 70 78 77 77 80 78 73 65 53 63 76 75 73 69 71 72 75 77 78 78 78 78 77 75 73 74 76 75 75 74 74 90 86 82 81 79
75 72 66 64 63 67 68 68 76 74 77 75 74 74 71 68 69 72 73 73 75 78 79 79 80 80 77 75 74 76 69 68 76 72 70 78 80 82 91 87 83 84 86
56 65 69 67 70 75 76 79 76 80 76 76 76 76 76 74 73 75 76 77 78 80 82 83 80 77 74 76 73 68 63 63 67 68 68 69 65 68 87 88 85 86 87
56 59 64 68 72 78 81 83 82 80 82 79 80 76 76 76 76 78 81 78 81 85 84 81 71 55 55 54 52 49 46 49 52 67 70 63 49 51 79 70 69 73 77
43 54 62 67 73 80 80 82 83 78 82 75 76 76 76 78 81 81 85 84 76 68 60 52 51 50 46 44 43 40 44 45 44 44 41 41 44 45 49 72 76 76 78
33 49 60 67 75 78 79 81 81 78 74 77 78 79 80 81 84 87 65 54 50 47 46 46 44 41 40 39 34 35 38 38 38 33 44 38 37 36 41 56 57 70 78
41 50 62 68 74 79 84 85 86 75 74 74 74 76 82 76 80 58 54 47 44 44 43 42 38 33 26 28 28 26 25 29 28 41 38 28 40 31 31 32 47 46 51
48 58 64 70 79 83 88 87 88 80 82 81 77 74 67 65 55 51 38 38 40 40 38 34 25 19 28 20 23 24 17 28 34 29 16 32 31 34 27 34 28 26 34
48 54 63 72 83 86 91 90 86 85 81 73 65 56 49 44 38 32 31 27 27 29 25 20 18 22 29 22 24 23 17 38 34 15 18 36 19 33 26 26 18 19 28
48 50 60 79 87 89 89 83 74 71 59 55 49 46 38 31 28 22 22 22 23 21 18 20 17 16 31 28 31 19 23 38 31 19 26 16 33 32 26 26 19 17 28
58 59 73 89 88 85 72 57 50 43 41 36 30 29 24 22 23 23 22 21 22 19 21 23 19 21 28 30 39 30 25 22 32 18 31 17 32 17 26 23 29 26 28
68 71 87 82 75 75 68 59 51 40 34 30 27 23 23 24 23 22 20 20 20 17 17 20 23 25 31 31 41 52 61 41 28 24 30 25 31 32 31 25 30 32 27
75 80 80 73 71 71 63 51 40 34 31 27 25 25 23 24 23 22 20 20 19 18 18 21 21 24 28 25 33 40 60 63 43 35 25 33 25 36 27 37 32 35 33
72 74 75 70 68 61 53 43 36 38 37 32 29 27 25 24 22 20 20 19 18 19 19 20 19 19 20 28 29 33 31 40 56 53 36 34 34 34 36 38 34 37 33
64 67 69 64 56 50 46 36 33 38 39 37 30 26 25 24 21 18 17 18 19 19 19 18 17 18 20 24 27 29 30 34 34 58 48 45 35 34 38 35 35 36 31
58 57 58 54 51 48 41 36 37 38 37 35 30 25 24 23 20 19 18 18 18 18 17 17 18 19 21 22 24 26 32 42 39 41 43 44 40 36 36 36 36 32 36
Wind_Speed
15 20 20 18 16 16 13 13 10 8 7 8 8 9 12 10 7 6 5 4 6 7 6 3 7 9 10 5 5 2 3 5 12 13 13 7 4 4 6 9 9 5 6
18 22 19 18 19 15 14 14 10 7 7 8 9 10 9 8 6 5 4 5 5 4 5 3 4 3 4 4 1 3 5 9 9 11 9 3 3 4 6 7 8 7 3
20 23 19 19 17 16 15 14 10 8 8 10 10 8 9 8 5 6 6 5 4 3 4 3 2 4 3 2 2 2 3 6 8 8 7 2 3 7 8 10 8 9 7
20 23 21 20 17 17 16 12 9 8 8 9 10 7 7 9 7 5 4 2 1 3 5 4 1 2 5 5 6 7 8 7 7 7 3 4 5 5 9 10 9 8 8
20 22 22 21 18 17 16 12 9 8 7 7 10 8 8 6 10 9 6 1 4 5 5 5 3 2 3 3 5 8 8 9 12 9 8 8 7 5 8 10 11 11 9
19 23 21 20 18 17 16 12 10 9 7 5 9 9 5 4 5 8 8 3 5 4 5 4 4 4 6 6 7 7 9 9 11 11 13 11 10 10 10 12 12 12 11
20 22 21 20 19 19 15 12 10 10 7 5 6 9 7 3 1 2 9 7 5 3 3 5 5 6 7 8 9 10 10 11 12 13 13 12 13 13 12 13 15 15 14
21 23 22 20 19 19 14 13 10 10 7 6 5 8 7 5 1 1 6 5 4 4 4 6 7 9 9 9 10 10 11 13 15 15 15 15 15 15 15 15 16 16 16
22 24 21 21 20 17 15 13 10 10 9 7 5 5 7 6 5 1 5 5 4 5 6 8 10 10 10 10 11 12 13 14 15 17 17 17 16 14 14 15 16 17 17
23 22 19 21 21 19 17 15 13 13 12 9 7 3 3 5 5 3 3 3 4 7 9 9 9 7 8 9 10 10 11 12 15 17 18 17 16 15 15 16 16 17 18
23 21 19 21 21 20 17 16 14 13 11 10 7 3 4 5 6 4 3 3 4 4 4 5 5 7 8 10 11 12 14 16 17 18 19 19 20 20 17 16 19 20 19
25 25 22 20 22 19 18 17 15 12 11 9 7 8 5 4 2 2 2 3 3 4 5 6 7 9 10 12 12 14 15 17 18 19 20 21 23 23 21 22 24 23 23
30 27 27 24 21 19 19 16 15 12 11 10 8 8 6 4 2 1 1 4 5 6 7 8 8 11 13 13 12 13 15 17 17 18 18 18 20 20 21 23 24 23 24
26 28 26 27 24 21 19 18 16 12 11 9 10 8 8 5 4 2 3 4 4 5 6 8 7 8 8 10 12 13 15 16 16 16 18 18 21 21 20 21 25 26 26
29 31 29 26 27 23 21 20 14 12 12 8 10 10 7 5 3 1 2 3 5 5 6 6 7 9 11 12 14 16 15 15 17 16 18 19 19 17 16 18 18 20 21
23 32 30 27 27 24 22 19 14 12 12 11 10 8 5 4 3 6 6 8 8 8 7 7 9 11 13 15 16 16 17 18 18 19 15 13 15 15 16 18 19 19 20
21 27 31 28 25 24 23 17 15 13 12 12 11 7 7 6 9 8 6 5 7 5 6 8 10 13 14 15 16 17 17 17 17 12 12 16 14 17 19 19 18 22 22
19 23 29 28 26 22 20 18 15 16 15 15 12 10 10 8 9 7 6 5 6 6 9 11 14 14 15 17 18 17 19 13 10 13 17 16 18 19 22 18 21 23 24
15 21 25 26 27 22 21 21 19 18 19 18 16 14 14 12 8 7 7 7 6 8 10 12 13 14 16 19 17 18 16 8 9 20 21 19 24 20 23 23 27 26 26
14 16 20 28 29 27 24 25 25 24 22 19 18 16 14 12 10 8 9 9 8 9 10 12 12 14 14 21 13 22 8 5 7 24 20 27 21 21 25 27 28 29 27
13 18 25 34 31 32 30 31 29 27 23 21 20 18 16 14 12 10 10 9 9 10 10 12 13 15 13 22 11 18 6 12 2 36 15 30 19 30 24 28 28 28 30
17 22 28 33 33 33 32 29 29 27 23 22 20 18 15 13 11 11 9 9 8 9 10 12 14 14 9 19 11 5 4 6 13 30 18 23 20 22 26 28 27 26 29
21 27 32 34 32 31 31 29 29 26 25 22 19 17 14 11 10 9 9 9 9 9 10 11 13 15 13 15 16 10 4 3 13 4 23 16 37 20 31 27 27 26 24
23 27 30 31 31 30 31 33 33 27 25 20 17 16 13 10 9 8 8 8 8 8 9 11 12 15 17 16 13 15 13 12 3 6 9 29 17 27 28 28 26 25 31
27 29 31 32 30 31 31 32 29 26 20 19 17 15 11 8 8 7 7 7 8 9 10 12 14 16 17 16 18 20 21 18 12 5 11 9 25 26 28 27 27 30 30
27 29 32 33 31 29 29 27 25 24 23 21 17 13 9 6 5 6 6 7 7 9 11 14 15 16 17 17 18 19 18 10 13 10 9 11 14 22 20 27 25 28 25
Wind_Direction
175 167 173 175 177 165 165 159 150 147 128 130 118 135 136 132 122 116 125 102 89 75 41 359 20 37 52 101 126 192 252 294 320 323 318 283 262 239 232 245 229 210 227
169 167 176 173 172 168 170 158 157 152 135 139 139 136 140 133 129 138 130 109 86 61 15 333 340 4 39 47 21 249 250 301 298 320 325 272 222 226 236 219 227 219 230
166 166 176 175 178 172 171 162 158 154 142 137 143 144 162 169 138 126 120 117 103 34 23 13 258 243 265 279 273 266 291 298 310 322 314 252 277 241 230 231 255 234 237
164 169 172 174 175 174 173 170 166 159 152 156 158 158 171 165 182 170 142 149 182 314 343 351 331 293 252 260 265 274 277 288 286 307 275 267 275 285 229 230 253 251 236
165 168 169 173 175 179 175 172 168 162 159 168 172 176 174 177 194 190 173 189 235 286 326 351 353 339 338 305 287 278 281 278 277 275 276 276 273 260 234 245 253 253 245
167 171 173 176 179 182 178 175 170 163 160 170 183 188 174 196 220 213 198 236 257 284 334 342 350 327 305 299 298 291 284 281 280 282 276 280 277 268 264 258 257 262 263
170 175 177 180 179 180 182 179 172 168 163 160 173 185 190 175 359 190 185 211 227 277 329 323 321 318 312 300 298 290 287 291 291 292 296 290 282 279 275 269 266 267 269
179 181 182 183 183 184 188 181 178 170 169 178 166 182 199 206 227 173 214 212 217 281 296 304 301 305 309 303 296 291 286 289 295 296 299 297 292 283 274 272 270 270 272
183 183 188 190 188 190 190 183 182 179 184 194 184 187 217 227 227 190 203 229 251 272 284 295 303 302 305 305 306 301 296 297 298 301 305 306 310 299 281 273 273 275 273
186 188 194 194 193 195 190 189 186 192 195 198 204 212 224 217 210 233 208 244 271 290 301 311 316 328 331 330 330 329 324 314 312 308 308 311 313 307 291 286 282 279 276
192 194 193 196 199 197 196 195 196 201 201 206 211 177 138 158 170 190 225 256 304 317 339 356 351 352 341 333 324 320 317 315 314 312 312 315 308 305 292 285 284 280 278
196 198 198 195 198 196 199 198 198 201 201 206 204 160 152 144 148 198 306 304 315 324 338 337 334 333 333 332 334 327 320 318 313 311 312 315 314 306 291 288 285 281 275
204 201 201 197 195 190 193 195 196 207 196 188 180 171 162 149 153 263 289 289 293 296 305 320 333 337 339 344 350 347 338 331 325 320 322 325 329 321 302 299 298 295 290
211 206 205 203 198 194 195 198 193 196 196 197 198 192 185 191 206 270 299 303 324 349 352 352 13 20 7 355 348 340 334 340 340 329 324 329 327 327 314 313 306 300 294
214 207 203 200 198 191 184 178 189 193 192 185 185 175 177 184 169 145 79 68 49 38 69 46 8 347 338 329 328 331 336 342 342 343 339 337 337 340 341 340 337 327 308
209 203 197 195 188 185 179 179 179 169 183 172 169 175 184 191 160 143 104 82 72 62 38 8 352 346 343 337 332 332 332 333 339 345 1 7 9 17 16 8 5 7 15
205 197 192 188 183 182 177 178 173 185 182 176 177 182 162 176 146 124 97 77 55 24 349 331 337 340 342 342 341 337 333 335 345 9 12 8 13 11 5 10 12 7 9
183 183 184 183 178 176 168 170 168 172 162 154 156 157 139 143 131 114 96 66 31 353 350 355 358 2 1 356 347 341 337 348 18 19 3 8 11 5 5 11 358 358 358
158 167 181 183 172 165 158 160 153 151 146 141 143 133 128 123 113 101 76 52 19 5 8 12 14 11 9 356 349 337 334 6 35 11 6 9 358 357 2 356 354 352 355
171 173 168 172 163 158 157 149 139 138 136 137 132 129 125 116 99 81 63 48 31 25 25 20 15 10 14 0 347 341 346 349 354 0 358 356 357 352 356 352 348 348 347
164 165 165 164 160 155 151 138 136 133 132 128 126 124 117 106 94 80 68 54 39 34 32 21 16 11 11 8 349 344 336 326 350 348 348 348 342 348 343 346 347 344 340
156 155 156 157 155 157 159 156 150 141 134 129 125 116 109 103 93 80 64 52 37 25 22 20 20 15 11 15 357 340 347 332 342 335 335 335 337 347 340 338 338 334 336
155 157 159 157 157 158 157 151 143 140 134 130 125 115 107 99 86 73 60 43 31 22 22 20 18 19 10 12 28 49 350 313 324 291 327 326 330 327 330 327 330 326 326
158 158 159 159 159 160 159 156 154 148 144 144 135 124 112 94 83 66 51 37 26 22 18 16 13 15 10 11 15 356 350 314 315 321 325 315 320 318 319 319 322 320 321
157 162 162 161 161 163 165 162 157 151 150 146 142 133 117 97 76 58 42 31 22 14 11 7 6 7 9 3 358 344 340 326 308 255 303 313 311 313 310 312 314 313 317
154 156 162 162 162 165 163 160 160 153 148 148 149 143 134 106 73 50 32 22 15 8 4 359 357 358 356 351 343 338 333 318 312 305 300 304 299 300 298 301 305 309 310